Weather History for KRIL - April, 2013

Change the Weather History Date:

Friday, April 5, 2013

  Actual Average Record
Temperature  
Mean Temperature 55 °F 45 °F  
Max Temperature 69 °F 60 °F - ()
Min Temperature 40 °F 31 °F - ()
Degree Days  
Heating Degree Days 10 20  
Month to date heating degree days 78 102  
Since 1 July heating degree days 5892 5886  
Cooling Degree Days 0 0  
Month to date cooling degree days 0 0  
Year to date cooling degree days 0 0  
Growing Degree Days 5 (Base 50)    
Moisture  
Dew Point 29 °F    
Average Humidity 47    
Maximum Humidity 76    
Minimum Humidity 18    
Precipitation  
Precipitation T in 0.04 in - ()
Month to date precipitation 0.08 0.20  
Year to date precipitation 1.40 2.97  
Sea Level Pressure  
Sea Level Pressure 29.86 in    
Wind  
Wind Speed 10 mph (West)    
Max Wind Speed 40 mph    
Max Gust Speed 52 mph    
Visibility 10 miles    
Events Rain    
T = Trace of Precipitation, MM = Missing Value Source: NWS Daily Summary

Daily Weather History Graph

Daily Weather History Graph

Search for Another Location

Airport or City:

Trip Planner

Search our weather history database for the weather conditions in past years. The results will help you decide how hot, cold, wet, or windy it might be!

Date:

Astronomy

Apr. 05, 2013 Rise Set
Actual Time 6:48 AM MDT 7:39 PM MDT
Civil Twilight 6:21 AM MDT 8:06 PM MDT
Nautical Twilight 5:48 AM MDT 8:38 PM MDT
Astronomical Twilight 5:15 AM MDT 9:12 PM MDT
Moon 3:56 AM MDT (4/5) 3:07 PM MDT (4/5)
Length of Visible Light 13h 45m
Length of Day
12h 50m
Waning Crescent, 23% of the Moon is Illuminated
Apr 5
Waning Crescent
Apr 10
New
Apr 18
First Quarter
Apr 25
Full
May 2
Last Quarter

Hourly Weather History & Observations

Time (MDT) Temp. Windchill Dew Point Humidity Pressure Visibility Wind Dir Wind Speed Gust Speed Precip Events Conditions
12:53 AM 46.9 °F - 26.1 °F 44% 29.94 in 10.0 mi Variable 3.5 mph - N/A   Clear
1:53 AM 45.0 °F 40.6 °F 26.1 °F 48% 29.94 in 10.0 mi WSW 8.1 mph - N/A   Clear
2:53 AM 43.0 °F 40.3 °F 25.0 °F 49% 29.92 in 10.0 mi WSW 4.6 mph - N/A   Clear
3:53 AM 42.1 °F 40.2 °F 26.1 °F 53% 29.91 in 10.0 mi West 3.5 mph - N/A   Clear
4:53 AM 42.1 °F 40.2 °F 25.0 °F 51% 29.91 in 10.0 mi Variable 3.5 mph - N/A   Clear
5:53 AM 43.0 °F - 26.1 °F 51% 29.89 in 10.0 mi Calm Calm - N/A   Partly Cloudy
6:53 AM 42.1 °F 40.2 °F 27.0 °F 55% 29.90 in 10.0 mi NNE 3.5 mph - N/A   Mostly Cloudy
7:53 AM 43.0 °F 40.3 °F 27.0 °F 53% 29.91 in 10.0 mi West 4.6 mph - N/A   Scattered Clouds
8:53 AM 46.9 °F - 27.0 °F 46% 29.92 in 10.0 mi Variable 6.9 mph - N/A   Mostly Cloudy
9:53 AM 52.0 °F - 27.0 °F 38% 29.87 in 10.0 mi Variable 4.6 mph - N/A   Scattered Clouds
10:53 AM 57.9 °F - 26.1 °F 30% 29.83 in 10.0 mi North 6.9 mph - N/A   Scattered Clouds
11:53 AM 62.1 °F - 24.1 °F 23% 29.80 in 10.0 mi WNW 8.1 mph - N/A   Partly Cloudy
12:53 PM 66.0 °F - 21.9 °F 19% 29.76 in 10.0 mi West 27.6 mph 38.0 mph N/A   Mostly Cloudy
1:53 PM 66.9 °F - 21.9 °F 18% 29.75 in 10.0 mi West 29.9 mph 38.0 mph N/A   Overcast
2:53 PM 66.0 °F - 21.9 °F 19% 29.73 in 10.0 mi West 23.0 mph 38.0 mph N/A   Overcast
3:36 PM 68.0 °F - 24.8 °F 20% 29.86 in 10.0 mi SW 23.0 mph 36.8 mph N/A   Mostly Cloudy
3:53 PM 64.9 °F - 26.1 °F 23% 29.73 in 10.0 mi SW 28.8 mph 36.8 mph N/A   Scattered Clouds
4:41 PM 64.4 °F - 26.6 °F 24% 29.83 in 10.0 mi South 11.5 mph 23.0 mph N/A   Partly Cloudy
4:53 PM 64.0 °F - 26.1 °F 24% 29.72 in 10.0 mi SSW 8.1 mph 21.9 mph N/A   Mostly Cloudy
5:17 PM 62.6 °F - 28.4 °F 27% 29.84 in 10.0 mi NW 16.1 mph 29.9 mph N/A   Overcast
5:26 PM 60.8 °F - 28.4 °F 29% 29.85 in 10.0 mi NW 18.4 mph 29.9 mph N/A   Overcast
5:53 PM 50.0 °F - 37.9 °F 63% 29.85 in 10.0 mi NW 28.8 mph 44.9 mph 0.00 in Rain Light Rain
6:53 PM 50.0 °F - 37.9 °F 63% 29.88 in 10.0 mi North 13.8 mph 23.0 mph 0.00 in   Mostly Cloudy
7:53 PM 50.0 °F - 37.0 °F 61% 29.87 in 10.0 mi SW 8.1 mph - N/A   Overcast
8:53 PM 46.9 °F - 39.0 °F 74% 29.89 in 10.0 mi South 3.5 mph - N/A   Mostly Cloudy
9:53 PM 46.9 °F - 37.9 °F 71% 29.91 in 10.0 mi NNE 5.8 mph - N/A   Overcast
10:53 PM 46.0 °F 42.5 °F 37.9 °F 73% 29.91 in 10.0 mi WSW 6.9 mph - N/A   Mostly Cloudy
11:53 PM 45.0 °F - 36.0 °F 71% 29.91 in 10.0 mi Calm Calm - N/A   Mostly Cloudy